Wind_Speed
22 18 14 15 15 13 10 7 6 7 3 10 13 16 15 13 16 13 10 11 12 14 14 14 17 20 19 20 18 21 19 23 24 17 14 13 9 9 9 9 10 14 19 25 29 31 32 26 24
30 24 17 22 16 15 8 12 4 6 11 17 19 16 14 15 17 14 13 15 16 14 14 15 21 23 16 17 19 18 16 20 23 18 15 8 10 11 12 12 14 16 20 27 27 28 28 21 21
32 29 22 24 21 21 17 11 11 12 14 24 25 21 23 19 19 19 17 16 18 19 18 19 21 20 14 17 21 15 19 18 22 17 13 11 11 8 9 9 13 17 22 25 28 26 25 19 20
34 31 23 22 22 20 20 15 14 17 20 21 22 18 18 19 21 24 25 24 22 20 23 22 24 19 14 12 17 13 15 16 19 18 11 9 14 11 9 12 17 18 21 26 24 25 21 16 18
36 33 28 24 21 23 19 15 16 17 18 20 22 24 28 29 33 30 25 26 23 17 23 24 20 15 9 8 12 15 16 16 16 13 10 9 8 17 16 14 19 19 22 23 21 24 18 16 16
35 34 29 27 26 28 26 23 24 21 25 32 32 34 38 38 38 31 27 24 24 20 22 21 14 14 13 13 12 16 18 18 16 14 8 7 9 8 16 17 18 21 22 17 21 22 17 11 11
30 31 30 27 27 29 30 32 34 35 34 36 39 42 41 41 37 30 25 21 19 25 27 22 16 19 19 19 16 17 19 19 16 13 5 10 16 18 16 11 14 20 15 14 20 20 15 14 3
26 28 32 30 29 30 30 31 32 33 34 35 38 39 38 37 32 29 25 21 23 27 25 24 27 28 24 22 19 19 20 19 18 12 9 9 14 17 10 8 14 10 11 16 16 19 15 11 10
20 23 26 28 30 31 31 30 29 29 29 30 33 33 33 30 26 25 27 27 27 28 29 29 28 24 23 24 20 21 19 17 18 12 9 12 12 11 5 6 5 7 9 14 16 16 18 13 8
19 20 22 22 24 27 28 27 27 26 23 23 26 26 26 27 28 30 31 33 33 34 34 34 32 30 28 25 26 26 23 20 19 13 12 12 8 7 8 3 3 9 10 12 14 21 21 15 8
12 14 15 16 18 20 21 21 20 20 21 21 24 27 29 30 32 35 35 35 35 35 34 33 33 33 32 31 26 25 25 21 20 14 10 12 10 11 10 4 2 8 13 12 14 19 23 20 10
9 11 12 13 14 16 18 20 21 22 23 24 27 30 33 34 36 35 33 29 25 23 25 28 31 32 31 28 24 21 17 18 19 14 7 11 16 14 11 4 3 8 8 12 11 17 19 22 12
7 9 11 12 14 17 20 23 26 27 27 30 32 33 33 33 29 20 17 19 19 20 20 21 22 23 24 24 21 17 14 14 14 14 8 13 18 16 10 6 3 8 3 10 11 11 16 22 16
9 11 14 17 20 22 25 28 30 32 32 32 31 31 28 14 11 12 15 17 18 19 20 21 20 18 19 21 24 16 12 12 8 8 6 17 20 14 13 7 2 5 2 5 10 12 14 15 19
15 16 19 22 25 29 32 32 30 29 29 30 30 17 10 10 11 14 15 18 20 21 20 20 16 12 13 16 26 20 13 7 7 6 6 12 15 15 15 10 3 3 4 3 9 10 11 11 18
21 21 24 29 31 27 27 29 28 27 27 22 7 8 11 14 15 17 18 19 24 24 22 20 13 9 8 12 20 20 13 11 12 9 7 8 13 16 14 12 5 5 5 3 8 10 9 11 13
26 28 30 29 27 27 27 26 25 22 11 4 6 9 12 15 16 16 19 21 24 25 23 22 27 15 7 8 20 19 18 19 16 10 7 10 12 12 14 11 9 9 5 5 6 10 8 9 10
31 33 30 28 29 29 24 23 17 5 4 1 6 9 7 10 14 15 12 13 26 20 23 22 26 21 14 11 21 18 22 23 17 16 15 13 15 17 15 14 13 12 5 3 7 11 9 7 8
33 31 29 30 29 28 25 11 7 6 4 2 5 7 6 9 10 10 10 10 20 13 17 21 26 21 10 13 21 20 22 26 19 18 13 10 12 19 20 17 15 11 7 0 7 9 10 6 8
31 30 30 28 27 21 15 9 9 6 4 4 6 9 9 11 11 11 8 6 11 16 20 17 26 20 7 11 19 20 24 24 25 19 13 11 11 22 23 18 16 12 8 1 2 7 10 8 9
29 26 26 24 20 11 12 7 6 6 4 6 8 10 10 11 12 10 8 7 6 14 19 19 24 18 5 12 18 21 22 19 23 18 15 15 17 18 19 21 16 14 8 4 3 5 11 10 12
27 26 22 18 13 12 10 8 9 9 11 6 9 10 9 12 14 14 11 6 7 2 6 15 19 15 3 8 16 22 22 22 21 18 17 19 24 18 20 21 17 14 9 7 6 7 10 13 14
25 22 16 14 12 11 10 12 12 14 16 14 11 12 14 15 17 17 16 10 9 11 11 19 17 14 15 4 12 18 24 23 24 22 19 23 22 19 24 23 18 15 13 11 8 6 3 8 9
22 16 13 12 11 12 13 13 15 16 19 21 20 21 22 22 21 19 17 16 12 15 15 8 8 5 12 17 6 14 20 26 27 25 24 19 22 23 26 23 20 16 15 16 12 6 2 5 7
17 16 15 14 14 16 16 16 18 21 22 26 27 27 27 27 26 21 20 19 15 17 22 14 7 12 12 17 12 7 18 21 27 27 27 25 24 25 26 25 22 17 17 20 13 7 5 6 5
16 16 17 17 16 17 19 21 23 25 27 29 29 30 30 31 31 29 25 25 23 19 23 19 17 11 5 12 11 11 11 22 25 29 28 27 25 27 26 27 23 20 19 19 14 9 10 6 7
16 16 17 18 19 20 22 25 28 27 28 29 30 31 31 32 35 36 30 32 28 28 24 28 30 19 15 16 16 17 15 13 25 30 31 27 27 28 30 31 25 22 21 22 18 13 9 9 9
16 17 18 20 23 25 27 28 30 32 34 36 36 36 37 38 39 40 40 38 37 31 29 27 32 29 23 22 19 18 14 11 15 34 34 30 30 25 30 29 26 25 28 26 24 19 13 9 11
18 20 22 24 26 29 32 35 37 38 40 41 42 42 44 45 44 45 44 43 42 41 41 37 38 41 39 32 23 22 14 12 8 27 35 32 31 31 31 33 29 29 31 28 26 21 17 12 12
22 25 27 29 32 35 38 41 44 46 47 48 48 47 49 50 52 52 50 45 43 43 43 40 40 42 40 38 27 18 14 23 27 36 38 37 34 36 39 29 34 34 30 27 25 26 18 15 13
Wind_Direction
277 278 278 287 295 299 306 253 271 308 308 345 339 334 335 336 334 337 315 315 315 315 311 303 307 317 328 334 342 343 351 353 349 348 342 346 331 2 345 332 332 331 334 332 337 335 335 341 358
276 275 269 286 281 294 253 295 299 292 303 316 315 325 327 328 316 316 309 303 301 297 295 312 321 316 327 341 346 348 351 353 356 353 347 314 324 320 334 325 335 331 334 345 338 339 347 354 5
276 273 265 271 277 280 280 260 259 272 293 306 299 305 311 318 307 304 303 300 293 298 293 298 311 319 321 341 346 351 358 357 357 348 344 333 331 328 342 327 328 338 345 338 337 343 358 12 30
271 269 263 267 271 264 267 260 248 275 294 290 284 294 303 304 301 305 298 291 289 298 301 300 307 309 308 333 347 344 350 355 355 352 340 327 320 318 323 314 317 335 341 337 344 350 5 11 34
264 265 265 255 258 255 245 244 246 255 262 280 292 299 305 310 310 309 304 297 289 301 311 311 309 297 291 318 341 334 335 339 353 352 340 353 1 323 319 322 321 328 333 337 353 354 359 8 20
261 263 264 265 257 248 247 242 247 248 264 278 285 290 297 300 302 304 302 295 288 281 304 303 308 302 291 297 312 327 328 329 342 348 346 239 290 266 294 300 324 331 329 341 8 357 2 23 3
254 258 261 263 263 262 261 263 263 263 267 270 275 283 289 293 297 296 296 289 290 294 300 289 287 297 297 300 286 321 319 319 328 341 306 201 246 264 291 294 320 329 331 347 15 7 4 9 337
247 253 256 259 262 263 266 271 274 272 277 280 281 286 289 291 292 291 294 285 292 293 294 290 286 290 293 297 280 301 311 314 314 323 298 236 258 273 284 300 305 357 348 348 16 18 10 6 1
248 254 261 267 271 275 277 279 280 281 281 282 281 284 289 291 292 296 296 295 291 289 287 285 284 280 287 285 283 293 303 306 310 310 294 292 269 262 234 260 296 9 343 344 10 7 13 3 13
252 256 262 268 272 275 278 282 286 288 290 288 286 289 292 296 295 295 295 294 292 288 283 278 270 271 274 276 277 284 289 293 300 308 296 295 264 195 218 124 68 25 353 25 25 25 16 10 2
258 259 261 264 269 275 284 291 295 299 299 299 299 299 297 296 300 300 300 297 295 291 287 279 269 270 269 274 270 276 274 280 288 283 286 276 182 169 178 93 37 2 358 21 8 25 20 27 39
252 264 273 278 282 287 291 293 294 294 298 299 300 301 302 303 306 307 306 306 303 301 292 284 278 272 268 262 263 274 258 273 276 280 271 251 182 175 176 181 25 1 359 358 7 24 21 24 45
265 276 284 286 289 291 294 297 300 301 303 303 302 303 306 311 313 323 341 342 337 330 320 317 308 284 266 257 242 239 258 266 269 260 250 219 180 176 195 206 305 358 27 346 33 22 29 23 43
266 282 295 301 303 303 301 301 302 304 305 304 305 311 316 325 350 343 347 341 344 345 341 334 312 293 268 257 231 248 259 264 256 243 220 186 177 196 205 211 330 337 306 25 32 32 22 28 31
292 299 300 303 306 305 304 302 303 305 305 306 314 320 347 348 349 354 357 355 355 351 350 353 337 307 272 256 240 242 232 228 187 165 198 180 182 195 202 220 273 299 78 44 18 31 25 35 27
294 300 305 304 303 303 301 302 305 307 306 311 328 5 356 344 348 355 3 3 359 358 357 358 357 338 276 263 221 198 200 177 158 163 195 203 208 203 215 225 217 153 120 19 359 20 40 23 38
298 301 303 301 300 297 299 301 303 301 287 311 5 354 350 345 347 353 7 5 2 11 9 19 5 341 303 244 186 183 178 177 168 177 224 224 227 210 219 218 181 182 158 30 13 24 52 27 41
297 299 301 299 296 297 300 299 289 243 232 353 353 333 347 347 341 358 31 353 1 6 2 339 342 340 319 204 185 186 172 174 179 190 206 221 226 229 209 192 181 185 186 27 9 19 30 37 25
296 297 296 293 294 296 297 267 211 201 226 333 348 323 350 344 338 344 17 11 343 320 338 339 349 337 324 204 193 183 171 166 180 198 227 241 241 218 189 182 180 172 173 330 43 34 40 34 27
293 295 291 292 291 286 278 207 200 215 261 333 329 330 346 341 338 332 358 341 308 355 354 340 350 346 307 207 195 190 185 173 183 203 207 217 207 183 179 179 168 158 164 111 27 43 56 53 59
289 289 289 288 279 254 245 223 244 250 292 317 319 320 328 330 329 319 335 332 333 26 355 1 4 354 286 197 190 204 200 204 191 197 194 213 179 178 185 181 171 167 168 151 128 74 71 71 81
286 286 283 260 245 234 235 253 266 282 288 288 285 295 314 317 312 308 309 309 284 59 340 335 18 14 338 207 203 205 215 215 199 198 204 198 185 190 185 182 176 165 170 173 122 109 91 93 88
280 276 263 245 242 236 227 251 264 284 288 291 283 284 296 300 300 303 296 295 277 273 291 352 360 35 33 201 206 208 214 217 208 199 194 196 195 190 188 187 186 180 182 186 150 111 77 93 94
274 250 238 244 244 251 254 260 275 285 291 294 296 298 299 298 300 302 292 291 289 280 277 234 279 354 344 19 312 229 210 217 221 211 208 207 202 199 192 189 188 182 191 193 182 167 91 126 109
241 228 235 241 242 252 263 271 277 281 286 291 296 299 299 302 301 297 290 282 275 275 278 258 248 284 307 317 340 280 242 223 214 217 224 224 208 208 198 195 197 191 205 196 191 193 183 149 141
226 234 239 240 244 255 267 276 279 284 289 291 294 295 298 298 296 293 292 287 281 271 271 259 260 251 303 293 304 309 306 246 226 220 221 221 220 213 207 201 201 208 210 195 188 173 175 155 156
230 236 244 252 259 264 270 277 280 283 284 285 287 289 288 286 286 291 292 284 284 272 264 272 253 251 265 273 274 287 301 271 242 228 223 222 216 216 208 211 214 212 206 199 200 197 195 198 207
236 248 259 266 274 279 281 281 283 284 283 284 284 283 283 282 284 286 286 287 283 268 253 260 252 255 239 242 256 274 285 255 251 235 224 219 213 215 220 215 211 215 205 206 205 207 218 240 239
253 262 269 274 277 280 283 287 285 285 286 285 286 287 287 286 286 285 285 283 278 272 261 260 260 256 260 249 266 266 260 209 262 246 228 225 215 218 218 225 219 212 209 209 212 216 212 221 251
260 268 272 274 278 281 285 289 291 292 290 289 288 287 286 288 289 288 286 283 281 276 270 262 257 254 250 257 261 228 210 185 182 222 227 222 225 217 219 226 221 217 217 214 218 217 211 226 247
Height
11023 11025 11024 11026 11026 11026 11026 11027 11025 11024 11023 11021 11019 11017 11016 11016 11016 11015 11012 11011 11010 11009 11008 11007 11005 11003 11000 10996 10992 10990 10986 10983 10980 10977 10975 10975 10976 10975 10974 10973 10970 10968 10965 10961 10955 10950 10947 10942 10936
11019 11020 11021 11021 11022 11023 11025 11025 11023 11022 11021 11019 11017 11015 11015 11014 11013 11011 11010 11008 11007 11006 11004 11003 11002 11000 10997 10994 10990 10988 10985 10982 10978 10976 10975 10976 10975 10974 10973 10972 10970 10967 10964 10959 10954 10950 10946 10941 10936
11013 11015 11017 11017 11019 11020 11020 11020 11020 11018 11018 11016 11015 11013 11011 11011 11009 11007 11006 11005 11004 11002 11001 10999 10998 10996 10995 10992 10988 10986 10983 10981 10979 10977 10975 10974 10975 10973 10972 10972 10969 10966 10962 10958 10953 10949 10946 10943 10938
11008 11009 11013 11014 11014 11015 11015 11017 11016 11014 11012 11011 11010 11009 11009 11008 11006 11004 11003 11001 11000 10999 10998 10996 10994 10992 10992 10991 10989 10986 10984 10982 10979 10977 10975 10974 10973 10973 10972 10970 10968 10966 10962 10957 10952 10947 10945 10944 10942
11003 11005 11008 11010 11012 11011 11012 11012 11013 11013 11011 11008 11007 11005 11005 11005 11003 11001 10998 10996 10995 10995 10993 10990 10988 10987 10988 10988 10986 10985 10983 10981 10978 10976 10974 10973 10973 10973 10971 10970 10967 10965 10961 10956 10951 10946 10944 10943 10943
10998 11000 11003 11004 11007 11008 11008 11008 11010 11011 11011 11008 11005 11003 11002 11002 11000 10998 10995 10992 10990 10990 10989 10987 10984 10983 10984 10984 10984 10982 10980 10979 10976 10974 10973 10974 10973 10973 10970 10969 10967 10965 10961 10956 10950 10945 10942 10942 10942
10994 10994 10998 11000 11002 11003 11004 11004 11006 11007 11008 11006 11001 10999 10999 10997 10995 10993 10991 10988 10986 10985 10983 10982 10981 10979 10979 10979 10979 10978 10977 10976 10974 10973 10971 10971 10970 10969 10970 10968 10967 10965 10960 10956 10951 10946 10942 10940 10941
10992 10991 10994 10996 10997 10997 10999 11000 11001 11002 11003 11001 10996 10993 10993 10991 10989 10988 10986 10984 10982 10980 10978 10977 10976 10975 10974 10973 10974 10974 10972 10971 10970 10970 10969 10968 10968 10967 10968 10967 10967 10965 10961 10957 10952 10947 10943 10941 10940
10989 10990 10991 10993 10994 10993 10993 10994 10996 10997 10998 10997 10991 10989 10988 10986 10984 10983 10980 10978 10976 10974 10972 10971 10970 10969 10970 10969 10969 10969 10969 10968 10967 10966 10965 10965 10965 10964 10967 10966 10965 10963 10962 10958 10953 10949 10944 10940 10939
10986 10988 10989 10991 10990 10990 10989 10989 10989 10990 10991 10990 10986 10984 10982 10981 10979 10976 10973 10970 10969 10967 10965 10964 10963 10963 10964 10964 10965 10965 10966 10964 10964 10964 10962 10962 10962 10962 10964 10965 10964 10963 10961 10958 10955 10951 10946 10940 10938
10985 10986 10987 10988 10987 10986 10985 10984 10985 10986 10986 10986 10983 10980 10976 10974 10971 10968 10966 10963 10961 10957 10956 10954 10954 10955 10956 10957 10958 10958 10961 10961 10961 10961 10960 10959 10960 10961 10962 10963 10963 10963 10961 10958 10956 10953 10948 10942 10939
10982 10983 10984 10985 10985 10984 10983 10982 10982 10982 10982 10980 10977 10974 10970 10967 10964 10961 10958 10955 10952 10949 10947 10944 10944 10945 10947 10949 10951 10952 10956 10956 10958 10957 10957 10956 10958 10960 10961 10963 10963 10962 10960 10958 10957 10955 10951 10945 10940
10981 10981 10981 10982 10982 10981 10979 10978 10977 10975 10975 10973 10970 10967 10964 10962 10959 10956 10953 10950 10947 10944 10941 10938 10936 10936 10938 10941 10945 10948 10950 10953 10955 10954 10954 10954 10956 10959 10961 10962 10963 10962 10960 10959 10958 10956 10953 10948 10942
10980 10980 10979 10979 10978 10976 10974 10973 10971 10969 10968 10965 10963 10961 10960 10958 10955 10953 10949 10945 10942 10939 10936 10933 10931 10930 10932 10936 10940 10944 10946 10949 10952 10953 10954 10955 10957 10960 10961 10962 10962 10962 10960 10959 10958 10956 10954 10952 10946
10976 10977 10976 10974 10973 10971 10968 10966 10965 10963 10961 10958 10958 10957 10956 10955 10952 10948 10945 10941 10938 10934 10931 10928 10926 10926 10928 10930 10935 10940 10943 10946 10950 10952 10955 10957 10958 10960 10960 10962 10962 10962 10960 10960 10958 10956 10955 10952 10949
10971 10972 10972 10970 10968 10966 10963 10960 10959 10958 10955 10955 10955 10955 10954 10950 10947 10943 10941 10939 10935 10931 10927 10924 10922 10922 10922 10924 10927 10934 10938 10942 10946 10950 10953 10955 10958 10959 10960 10961 10961 10962 10961 10960 10959 10957 10956 10954 10952
10966 10966 10966 10963 10960 10959 10958 10956 10954 10953 10952 10953 10953 10953 10951 10947 10944 10942 10941 10938 10935 10931 10927 10925 10924 10922 10920 10918 10923 10928 10932 10938 10945 10948 10950 10952 10955 10957 10958 10960 10961 10961 10962 10961 10960 10958 10956 10954 10952
10962 10960 10960 10956 10954 10953 10954 10951 10949 10950 10951 10952 10952 10951 10949 10945 10942 10942 10942 10937 10934 10931 10927 10925 10923 10920 10919 10918 10920 10925 10930 10933 10940 10944 10947 10950 10951 10954 10956 10958 10959 10961 10962 10962 10961 10959 10957 10954 10953
10957 10955 10953 10951 10949 10947 10946 10946 10946 10948 10949 10949 10949 10948 10946 10943 10940 10940 10939 10935 10930 10928 10925 10925 10923 10918 10917 10920 10921 10924 10928 10932 10938 10940 10944 10946 10946 10950 10954 10956 10960 10962 10962 10963 10962 10960 10957 10955 10953
10951 10950 10946 10945 10943 10942 10940 10944 10944 10945 10945 10946 10945 10944 10943 10941 10938 10938 10937 10935 10929 10927 10925 10924 10920 10916 10915 10918 10921 10924 10929 10932 10934 10938 10941 10943 10943 10946 10952 10955 10957 10959 10961 10963 10963 10962 10958 10957 10955
10946 10944 10942 10940 10938 10938 10938 10940 10940 10940 10942 10944 10943 10942 10941 10940 10937 10936 10935 10932 10929 10927 10925 10922 10918 10916 10914 10915 10918 10921 10926 10930 10934 10937 10940 10942 10944 10947 10951 10953 10955 10956 10960 10963 10962 10962 10960 10958 10956
10940 10938 10937 10935 10935 10936 10936 10935 10935 10937 10937 10941 10941 10940 10940 10938 10936 10934 10934 10931 10925 10924 10923 10922 10919 10919 10918 10917 10917 10918 10924 10929 10934 10936 10938 10940 10944 10945 10949 10952 10953 10955 10959 10962 10963 10962 10962 10960 10958
10934 10933 10933 10933 10934 10934 10934 10933 10934 10934 10934 10936 10938 10938 10936 10935 10934 10933 10930 10930 10928 10926 10924 10921 10921 10922 10920 10917 10915 10916 10918 10924 10930 10933 10935 10938 10941 10942 10944 10949 10951 10954 10957 10961 10963 10963 10962 10961 10959
10929 10928 10929 10931 10932 10932 10931 10932 10932 10932 10931 10930 10932 10932 10931 10930 10930 10930 10928 10928 10928 10927 10924 10922 10922 10922 10921 10919 10917 10916 10914 10918 10923 10929 10933 10935 10937 10940 10942 10945 10949 10952 10955 10958 10962 10963 10962 10961 10962
10924 10924 10926 10928 10929 10928 10929 10929 10929 10927 10927 10925 10925 10925 10924 10923 10922 10922 10921 10921 10924 10925 10922 10923 10921 10920 10918 10917 10916 10914 10915 10916 10920 10924 10931 10934 10936 10938 10941 10943 10946 10949 10952 10956 10960 10961 10961 10962 10962
10920 10922 10923 10925 10926 10926 10925 10925 10925 10924 10922 10920 10918 10918 10917 10915 10913 10913 10915 10913 10915 10917 10917 10917 10916 10915 10912 10913 10914 10913 10915 10916 10918 10923 10927 10932 10935 10936 10938 10941 10943 10946 10950 10954 10957 10959 10960 10961 10963
10917 10919 10920 10921 10922 10922 10923 10921 10920 10919 10918 10916 10914 10913 10912 10909 10906 10905 10910 10905 10906 10906 10908 10906 10908 10908 10909 10908 10909 10910 10912 10914 10917 10920 10923 10927 10931 10933 10936 10938 10940 10943 10947 10951 10954 10956 10959 10961 10962
10912 10914 10916 10916 10916 10916 10916 10915 10914 10912 10910 10908 10907 10906 10905 10901 10900 10899 10897 10897 10896 10898 10897 10899 10899 10901 10903 10903 10906 10908 10910 10907 10908 10914 10917 10920 10924 10929 10934 10936 10937 10940 10943 10947 10949 10952 10956 10959 10960
10907 10908 10909 10911 10911 10910 10908 10906 10904 10903 10901 10899 10897 10896 10893 10890 10890 10889 10887 10887 10885 10885 10887 10891 10890 10892 10892 10896 10899 10904 10902 10896 10899 10908 10912 10916 10917 10922 10929 10933 10935 10937 10941 10943 10945 10948 10952 10954 10956
10902 10902 10903 10903 10903 10901 10899 10896 10894 10890 10888 10885 10884 10883 10881 10878 10874 10874 10875 10876 10874 10871 10870 10876 10880 10882 10883 10887 10892 10895 10894 10892 10895 10903 10905 10905 10910 10914 10922 10927 10929 10933 10937 10940 10942 10945 10947 10950 10952